PKO YCOR-YCOM

Flight info

Callsign PKO
Flight time 0h 50m
Altitude 7500
Route ELDO DCT DSS DCT YCRG
Aircraft SR22/L-SDGRY/S

Departure

Time 2026-05-07 09:51
Airport Corowa Airport (YCOR)

Arrival

Time 2026-05-07 10:41
Airport Cooma Snowy Mountains Airport (YCOM)
Time Latitude Longitude Altitude Speed Heading
2026-05-07 09:48 -35.98851 146.35487 462 ft 3 kts 150°
2026-05-07 09:48 -35.98874 146.35498 462 ft 4 kts 159°
2026-05-07 09:48 -35.98905 146.35512 462 ft 5 kts 162°
2026-05-07 09:49 -35.98939 146.35519 461 ft 4 kts 201°
2026-05-07 09:49 -35.98928 146.35551 462 ft 4 kts 86°
2026-05-07 09:49 -35.98959 146.35607 462 ft 21 kts 117°
2026-05-07 09:49 -35.99046 146.35755 463 ft 19 kts 146°
2026-05-07 09:50 -35.99151 146.35849 462 ft 18 kts 150°
2026-05-07 09:50 -35.99230 146.35912 461 ft 6 kts 218°
2026-05-07 09:50 -35.99365 146.35682 458 ft 71 kts 234°
2026-05-07 09:50 -35.99744 146.34997 637 ft 109 kts 239°
2026-05-07 09:51 -36.00097 146.34184 1163 ft 105 kts 242°
2026-05-07 09:51 -36.00423 146.33433 1713 ft 98 kts 229°
2026-05-07 09:51 -36.01030 146.33132 2214 ft 103 kts 184°
2026-05-07 09:51 -36.01692 146.33560 2657 ft 119 kts 146°
2026-05-07 09:52 -36.02244 146.34322 3099 ft 121 kts 143°
2026-05-07 09:52 -36.02801 146.35099 3437 ft 127 kts 143°
2026-05-07 09:52 -36.03444 146.35965 3498 ft 146 kts 143°
2026-05-07 09:52 -36.04118 146.37023 3504 ft 163 kts 138°
2026-05-07 09:53 -36.04966 146.37968 3497 ft 165 kts 154°
2026-05-07 09:53 -36.05965 146.38687 3494 ft 167 kts 160°
2026-05-07 09:53 -36.07018 146.39315 3492 ft 169 kts 163°
2026-05-07 09:53 -36.08085 146.39906 3489 ft 166 kts 164°
2026-05-07 09:54 -36.09138 146.40473 3492 ft 163 kts 164°
2026-05-07 09:54 -36.10175 146.41025 3494 ft 161 kts 165°
2026-05-07 09:54 -36.11205 146.41571 3497 ft 160 kts 165°
2026-05-07 09:54 -36.12239 146.42119 3494 ft 160 kts 165°
2026-05-07 09:55 -36.13273 146.42666 3495 ft 160 kts 164°
2026-05-07 09:55 -36.14302 146.43211 3498 ft 161 kts 165°
2026-05-07 09:55 -36.15337 146.43759 3491 ft 161 kts 164°
2026-05-07 09:55 -36.16371 146.44307 3491 ft 161 kts 164°
2026-05-07 09:56 -36.17403 146.44855 3491 ft 161 kts 165°
2026-05-07 09:56 -36.18438 146.45403 3490 ft 161 kts 165°
2026-05-07 09:56 -36.19471 146.45951 3491 ft 161 kts 165°
2026-05-07 09:56 -36.20503 146.46499 3490 ft 161 kts 165°
2026-05-07 09:57 -36.21540 146.47049 3484 ft 162 kts 165°
2026-05-07 09:57 -36.22581 146.47601 3486 ft 163 kts 164°
2026-05-07 09:57 -36.23630 146.48158 3490 ft 164 kts 165°
2026-05-07 09:57 -36.24678 146.48715 3489 ft 163 kts 165°
2026-05-07 09:58 -36.25724 146.49271 3485 ft 163 kts 165°
2026-05-07 09:58 -36.26766 146.49825 3484 ft 163 kts 164°
2026-05-07 09:58 -36.27813 146.50381 3484 ft 163 kts 164°
2026-05-07 09:58 -36.28861 146.50938 3483 ft 163 kts 165°
2026-05-07 09:59 -36.29905 146.51494 3478 ft 163 kts 164°
2026-05-07 09:59 -36.30896 146.52192 3471 ft 173 kts 141°
2026-05-07 09:59 -36.31505 146.53517 3485 ft 180 kts 121°
2026-05-07 09:59 -36.31993 146.54955 3475 ft 182 kts 119°
2026-05-07 10:00 -36.32455 146.56417 3477 ft 182 kts 117°
2026-05-07 10:00 -36.32909 146.57888 3470 ft 183 kts 116°
2026-05-07 10:00 -36.33361 146.59369 3464 ft 184 kts 116°
2026-05-07 10:00 -36.33813 146.60854 3465 ft 184 kts 115°
2026-05-07 10:01 -36.34264 146.62338 3466 ft 184 kts 116°
2026-05-07 10:01 -36.34717 146.63824 3325 ft 192 kts 116°
2026-05-07 10:01 -36.35227 146.65442 3083 ft 195 kts 114°
2026-05-07 10:01 -36.35640 146.66853 3460 ft 174 kts 116°
2026-05-07 10:02 -36.36084 146.68325 3287 ft 188 kts 114°
2026-05-07 10:02 -36.36298 146.69960 3128 ft 197 kts 97°
2026-05-07 10:02 -36.36414 146.71653 3082 ft 195 kts 96°
2026-05-07 10:02 -36.36526 146.73321 3068 ft 193 kts 97°
2026-05-07 10:03 -36.36630 146.74967 3063 ft 191 kts 97°
2026-05-07 10:03 -36.36717 146.76602 3061 ft 189 kts 96°
2026-05-07 10:03 -36.36835 146.78215 3040 ft 186 kts 104°
2026-05-07 10:03 -36.37183 146.79742 3030 ft 183 kts 109°
2026-05-07 10:04 -36.37563 146.81245 3063 ft 183 kts 110°
2026-05-07 10:04 -36.37938 146.82757 3069 ft 183 kts 109°
2026-05-07 10:04 -36.38292 146.84280 3042 ft 185 kts 110°
2026-05-07 10:04 -36.38631 146.85808 3058 ft 184 kts 110°
2026-05-07 10:05 -36.38987 146.87326 3064 ft 183 kts 109°
2026-05-07 10:05 -36.39342 146.88848 3074 ft 184 kts 110°
2026-05-07 10:05 -36.39704 146.90375 3133 ft 184 kts 110°
2026-05-07 10:05 -36.40014 146.91745 3708 ft 159 kts 110°
2026-05-07 10:06 -36.40564 146.92946 3825 ft 166 kts 131°
2026-05-07 10:06 -36.41269 146.94149 3832 ft 177 kts 131°
2026-05-07 10:06 -36.42017 146.95391 3742 ft 181 kts 133°
2026-05-07 10:06 -36.42770 146.96645 3751 ft 182 kts 132°
2026-05-07 10:07 -36.43500 146.97941 3757 ft 186 kts 121°
2026-05-07 10:07 -36.43639 146.99534 3771 ft 192 kts 76°
2026-05-07 10:07 -36.43241 147.01112 3744 ft 192 kts 72°
2026-05-07 10:07 -36.42821 147.02680 3744 ft 190 kts 73°
2026-05-07 10:08 -36.42410 147.04238 3742 ft 191 kts 72°
2026-05-07 10:08 -36.42000 147.05798 3759 ft 190 kts 71°
2026-05-07 10:08 -36.41601 147.07373 3760 ft 190 kts 74°
2026-05-07 10:08 -36.41215 147.08942 3775 ft 190 kts 73°
2026-05-07 10:09 -36.40825 147.10518 3759 ft 191 kts 72°
2026-05-07 10:09 -36.40431 147.12097 3740 ft 191 kts 73°
2026-05-07 10:09 -36.40027 147.13665 3747 ft 190 kts 72°
2026-05-07 10:09 -36.39630 147.15230 3757 ft 191 kts 72°
2026-05-07 10:10 -36.39244 147.16811 3774 ft 191 kts 72°
2026-05-07 10:10 -36.38869 147.18388 3708 ft 189 kts 72°
2026-05-07 10:10 -36.38487 147.19941 3723 ft 187 kts 72°
2026-05-07 10:10 -36.38095 147.21479 3733 ft 187 kts 72°
2026-05-07 10:11 -36.37696 147.23019 3753 ft 188 kts 72°
2026-05-07 10:11 -36.37290 147.24569 3721 ft 189 kts 72°
2026-05-07 10:11 -36.36891 147.26115 3726 ft 188 kts 72°
2026-05-07 10:11 -36.36496 147.27654 3723 ft 187 kts 72°
2026-05-07 10:12 -36.36105 147.29186 3726 ft 186 kts 72°
2026-05-07 10:12 -36.35708 147.30731 3729 ft 187 kts 72°
2026-05-07 10:12 -36.35311 147.32270 3718 ft 188 kts 72°
2026-05-07 10:12 -36.34910 147.33812 3719 ft 188 kts 71°
2026-05-07 10:13 -36.34508 147.35357 3719 ft 189 kts 72°
2026-05-07 10:13 -36.34111 147.36910 3697 ft 189 kts 72°
2026-05-07 10:13 -36.33715 147.38457 3707 ft 187 kts 72°
2026-05-07 10:13 -36.33322 147.39997 3705 ft 188 kts 72°
2026-05-07 10:14 -36.32899 147.41529 3702 ft 188 kts 65°
2026-05-07 10:14 -36.32343 147.42993 3707 ft 187 kts 66°
2026-05-07 10:14 -36.31832 147.44458 3713 ft 187 kts 67°
2026-05-07 10:14 -36.31341 147.45953 3713 ft 188 kts 68°
2026-05-07 10:15 -36.30863 147.47461 3684 ft 188 kts 69°
2026-05-07 10:15 -36.30393 147.48970 3682 ft 187 kts 70°
2026-05-07 10:15 -36.29931 147.50475 3703 ft 187 kts 69°
2026-05-07 10:15 -36.29471 147.51984 3680 ft 188 kts 69°
2026-05-07 10:16 -36.29010 147.53497 3725 ft 188 kts 70°
2026-05-07 10:16 -36.28548 147.55022 3682 ft 188 kts 70°
2026-05-07 10:16 -36.28090 147.56530 3684 ft 186 kts 69°
2026-05-07 10:16 -36.27637 147.58027 3680 ft 185 kts 69°
2026-05-07 10:17 -36.27186 147.59515 3700 ft 184 kts 70°
2026-05-07 10:17 -36.26733 147.61008 3713 ft 186 kts 69°
2026-05-07 10:17 -36.26278 147.62509 3696 ft 186 kts 70°
2026-05-07 10:17 -36.25826 147.63997 3727 ft 184 kts 70°
2026-05-07 10:18 -36.25376 147.65482 3731 ft 184 kts 69°
2026-05-07 10:18 -36.24930 147.66947 3748 ft 185 kts 69°
2026-05-07 10:18 -36.24467 147.68471 3735 ft 185 kts 69°
2026-05-07 10:18 -36.24015 147.69958 3723 ft 185 kts 69°
2026-05-07 10:19 -36.23564 147.71442 3738 ft 184 kts 69°
2026-05-07 10:19 -36.23112 147.72926 3742 ft 184 kts 69°
2026-05-07 10:19 -36.22661 147.74408 3738 ft 184 kts 69°
2026-05-07 10:19 -36.22211 147.75885 3741 ft 183 kts 69°
2026-05-07 10:20 -36.21759 147.77366 3746 ft 183 kts 69°
2026-05-07 10:20 -36.21310 147.78840 3745 ft 182 kts 69°
2026-05-07 10:20 -36.20863 147.80305 3742 ft 182 kts 69°
2026-05-07 10:20 -36.20416 147.81767 3748 ft 181 kts 69°
2026-05-07 10:21 -36.19971 147.83225 3749 ft 181 kts 69°
2026-05-07 10:21 -36.19526 147.84679 3753 ft 180 kts 69°
2026-05-07 10:21 -36.19084 147.86127 3752 ft 180 kts 70°
2026-05-07 10:21 -36.18651 147.87538 4060 ft 166 kts 70°
2026-05-07 10:22 -36.18386 147.88857 4420 ft 155 kts 95°
2026-05-07 10:22 -36.18490 147.90166 4745 ft 151 kts 100°
2026-05-07 10:22 -36.18616 147.91459 5009 ft 153 kts 101°
2026-05-07 10:22 -36.18745 147.92717 5414 ft 144 kts 102°
2026-05-07 10:23 -36.18875 147.93943 5738 ft 144 kts 104°
2026-05-07 10:23 -36.19007 147.95160 6056 ft 143 kts 105°
2026-05-07 10:23 -36.19142 147.96386 6345 ft 144 kts 106°
2026-05-07 10:23 -36.19284 147.97652 6480 ft 156 kts 105°
2026-05-07 10:24 -36.19441 147.99053 6496 ft 171 kts 105°
2026-05-07 10:24 -36.19608 148.00554 6491 ft 181 kts 104°
2026-05-07 10:24 -36.19782 148.02118 6481 ft 186 kts 104°
2026-05-07 10:24 -36.19960 148.03716 6471 ft 189 kts 104°
2026-05-07 10:25 -36.20141 148.05338 6469 ft 191 kts 103°
2026-05-07 10:25 -36.20323 148.06974 6475 ft 193 kts 103°
2026-05-07 10:25 -36.20506 148.08618 6464 ft 193 kts 103°
2026-05-07 10:25 -36.20689 148.10264 6457 ft 193 kts 104°
2026-05-07 10:26 -36.20872 148.11913 6455 ft 193 kts 104°
2026-05-07 10:26 -36.21055 148.13560 6455 ft 193 kts 105°
2026-05-07 10:26 -36.21237 148.15205 6457 ft 193 kts 104°
2026-05-07 10:26 -36.21419 148.16849 6459 ft 192 kts 103°
2026-05-07 10:27 -36.21600 148.18486 6446 ft 190 kts 104°
2026-05-07 10:27 -36.21779 148.20106 6474 ft 188 kts 104°
2026-05-07 10:27 -36.21956 148.21716 6438 ft 188 kts 105°
2026-05-07 10:27 -36.22133 148.23314 6456 ft 187 kts 104°
2026-05-07 10:28 -36.22308 148.24911 6453 ft 188 kts 103°
2026-05-07 10:28 -36.22484 148.26514 6438 ft 188 kts 106°
2026-05-07 10:28 -36.22660 148.28121 6417 ft 189 kts 103°
2026-05-07 10:28 -36.22838 148.29744 6458 ft 192 kts 104°
2026-05-07 10:29 -36.23020 148.31404 6421 ft 195 kts 106°
2026-05-07 10:29 -36.23203 148.33075 6386 ft 195 kts 103°
2026-05-07 10:29 -36.23372 148.34637 6851 ft 172 kts 106°
2026-05-07 10:30 -36.23699 148.37612 6971 ft 181 kts 105°
2026-05-07 10:30 -36.23869 148.39169 6962 ft 185 kts 106°
2026-05-07 10:30 -36.24038 148.40731 6987 ft 181 kts 107°
2026-05-07 10:30 -36.24204 148.42262 6973 ft 177 kts 106°
2026-05-07 10:31 -36.24367 148.43765 6973 ft 176 kts 106°
2026-05-07 10:31 -36.24529 148.45259 6951 ft 174 kts 108°
2026-05-07 10:31 -36.24689 148.46738 6955 ft 173 kts 106°
2026-05-07 10:31 -36.24847 148.48205 6901 ft 171 kts 107°
2026-05-07 10:32 -36.25003 148.49647 6968 ft 169 kts 107°
2026-05-07 10:32 -36.25160 148.51104 6937 ft 171 kts 108°
2026-05-07 10:32 -36.25318 148.52566 6943 ft 171 kts 107°
2026-05-07 10:32 -36.25476 148.54034 6949 ft 172 kts 107°
2026-05-07 10:33 -36.25634 148.55507 6928 ft 172 kts 107°
2026-05-07 10:33 -36.25792 148.56977 6963 ft 173 kts 108°
2026-05-07 10:33 -36.25952 148.58464 6955 ft 175 kts 108°
2026-05-07 10:33 -36.26112 148.59965 6960 ft 176 kts 107°
2026-05-07 10:34 -36.26274 148.61477 6963 ft 177 kts 107°
2026-05-07 10:34 -36.26436 148.62993 6965 ft 178 kts 107°
2026-05-07 10:34 -36.26598 148.64517 6970 ft 178 kts 107°
2026-05-07 10:34 -36.26761 148.66043 6973 ft 178 kts 107°
2026-05-07 10:35 -36.26923 148.67568 6970 ft 178 kts 107°
2026-05-07 10:35 -36.27085 148.69091 6974 ft 179 kts 106°
2026-05-07 10:35 -36.27247 148.70613 6973 ft 178 kts 106°
2026-05-07 10:35 -36.27408 148.72134 6977 ft 178 kts 107°
2026-05-07 10:36 -36.27569 148.73656 6980 ft 178 kts 106°
2026-05-07 10:36 -36.27730 148.75181 6978 ft 178 kts 107°
2026-05-07 10:36 -36.27891 148.76706 6979 ft 178 kts 107°
2026-05-07 10:36 -36.28052 148.78232 6977 ft 179 kts 107°
2026-05-07 10:37 -36.28215 148.79766 6868 ft 185 kts 107°
2026-05-07 10:37 -36.28388 148.81407 6598 ft 197 kts 105°
2026-05-07 10:37 -36.28568 148.83123 6324 ft 203 kts 105°
2026-05-07 10:37 -36.28751 148.84872 6044 ft 207 kts 103°
2026-05-07 10:38 -36.28937 148.86652 5767 ft 208 kts 103°
2026-05-07 10:38 -36.29123 148.88425 5480 ft 208 kts 102°
2026-05-07 10:38 -36.29308 148.90200 5208 ft 208 kts 101°
2026-05-07 10:38 -36.29493 148.91971 4937 ft 206 kts 101°
2026-05-07 10:39 -36.29676 148.93731 4659 ft 206 kts 101°
2026-05-07 10:39 -36.29826 148.95178 4423 ft 204 kts 100°
2026-05-07 10:39 -36.30007 148.96913 4142 ft 202 kts 100°
2026-05-07 10:39 -36.29806 148.98444 4026 ft 171 kts 44°
2026-05-07 10:40 -36.28922 148.99165 3954 ft 139 kts 28°
2026-05-07 10:40 -36.28195 148.99473 3890 ft 92 kts 329°
2026-05-07 10:40 -36.27823 148.98940 3768 ft 81 kts 290°
2026-05-07 10:40 -36.27660 148.98256 3619 ft 84 kts 259°
2026-05-07 10:41 -36.28063 148.97795 3386 ft 91 kts 192°
2026-05-07 10:41 -36.28631 148.97630 3200 ft 79 kts 195°
2026-05-07 10:41 -36.29130 148.97500 3081 ft 69 kts 194°
2026-05-07 10:41 -36.29466 148.97409 3057 ft 12 kts 191°
2026-05-07 10:42 -36.29423 148.97401 3057 ft 13 kts
2026-05-07 10:42 -36.29363 148.97334 3056 ft 12 kts 284°
2026-05-07 10:42 -36.29343 148.97231 3056 ft 13 kts 281°
2026-05-07 10:42 -36.29331 148.97148 3057 ft 1 kts 279°